Location: St Paul
(33.4390°N, 83.7350°W)
Time: 08:20:35
(UTC-05:00)

Cosmos-2242 - Pass Details

Date: 06 October 2017
Orbit: 592 x 617 km, 82.5° (Epoch: 13 December)

Event Time Altitude Azimuth Distance (km) Brightness Sun altitude
Rises 19:46:36 0° 158° (SSE) 2,847 6.2 -8.0°
Reaches altitude 10° 19:49:07 10° 144° (SE) 1,943 5.3 -8.5°
Maximum altitude 19:52:37 25° 90° (E) 1,232 4.0 -9.2°
Drops below altitude 10° 19:56:06 10° 35° (NE) 1,942 5.3 -10.0°
Sets 19:58:36 0° 22° (NNE) 2,844 6.2 -10.5°
